Grafton, MO

5:21 PM CST on January 21, 2017 (GMT -0600)
St. Charles

Weather History for KSET - October, 2011

Change the Weather History Date:

Saturday, October 8, 2011

  Actual Average (KSTL) Record (KSTL)
Temperature  
Mean Temperature 68 °F -  
Max Temperature 82 °F 70 °F 92 °F (1980)
Min Temperature 54 °F 50 °F 30 °F (2000)
Cooling Degree Days 3    
Growing Degree Days 18 (Base 50)    
Moisture  
Dew Point 52 °F    
Average Humidity 60    
Maximum Humidity 86    
Minimum Humidity 33    
Precipitation  
Precipitation 0.00 in - - ()
Sea Level Pressure  
Sea Level Pressure 30.24 in    
Wind  
Wind Speed 8 mph (SE)    
Max Wind Speed 14 mph    
Max Gust Speed 22 mph    
Visibility 10 miles    
Events      
Averages and records for this station are not official NWS values.
T = Trace of Precipitation, MM = Missing Value Source: NWS Daily Summary

Daily Weather History Graph

Daily Weather History Graph

Search for Another Location

Airport or City:

Trip Planner

Search our weather history database for the weather conditions in past years. The results will help you decide how hot, cold, wet, or windy it might be!

Date:

Astronomy

Oct. 08, 2011 Rise Set
Actual Time 7:04 AM CDT 6:33 PM CDT
Civil Twilight 6:37 AM CDT 7:00 PM CDT
Nautical Twilight 6:06 AM CDT 7:31 PM CDT
Astronomical Twilight 5:35 AM CDT 8:02 PM CDT
Moon 4:43 PM CDT (10/8) 3:53 AM CDT (10/8)
Length of Visible Light 12h 23m
Length of Day
11h 29m
Waxing Gibbous, 90% of the Moon is Illuminated
Oct 8
Waxing Gibbous
Oct 11
Full
Oct 19
Last Quarter
Oct 26
New
Nov 2
First Quarter

Hourly Weather History & Observations

Time (CDT) Temp. Dew Point Humidity Pressure Visibility Wind Dir Wind Speed Gust Speed Precip Events Conditions
1:54 AM 62.1 °F 52.0 °F 70% 30.20 in 10.0 mi East 5.8 mph - N/A   Clear
2:54 AM 63.0 °F 54.0 °F 72% 30.21 in 10.0 mi SE 8.1 mph - N/A   Clear
3:54 AM 59.0 °F 52.0 °F 78% 30.22 in 10.0 mi ESE 6.9 mph - N/A   Clear
4:54 AM 59.0 °F 54.0 °F 83% 30.22 in 10.0 mi East 5.8 mph - N/A   Clear
5:54 AM 54.0 °F 50.0 °F 86% 30.24 in 9.0 mi North - - N/A   Clear
6:54 AM 55.9 °F 51.1 °F 84% 30.26 in 9.0 mi East 8.1 mph - N/A   Clear
7:54 AM 59.0 °F 54.0 °F 83% 30.28 in 8.0 mi East 6.9 mph - N/A   Clear
8:54 AM 64.9 °F 57.0 °F 75% 30.29 in 10.0 mi ESE 9.2 mph - N/A   Clear
9:54 AM 71.1 °F 55.0 °F 57% 30.30 in 10.0 mi SSE 9.2 mph - N/A   Clear
10:54 AM 75.0 °F 53.1 °F 46% 30.29 in 10.0 mi South 11.5 mph - N/A   Clear
11:54 AM 77.0 °F 52.0 °F 42% 30.27 in 10.0 mi SSE 12.7 mph - N/A   Clear
12:54 PM 79.0 °F 50.0 °F 36% 30.26 in 10.0 mi South 12.7 mph 21.9 mph N/A   Clear
2:54 PM 81.0 °F 50.0 °F 34% 30.21 in 10.0 mi SE 6.9 mph - N/A   Clear
3:54 PM 82.0 °F 50.0 °F 33% 30.20 in 10.0 mi SSE 13.8 mph - N/A   Clear
4:54 PM 81.0 °F 51.1 °F 35% 30.19 in 10.0 mi SE 13.8 mph - N/A   Clear
5:54 PM 78.1 °F 50.0 °F 37% 30.19 in 10.0 mi SE 11.5 mph - N/A   Clear
6:54 PM 71.1 °F 51.1 °F 49% 30.20 in 10.0 mi SE 9.2 mph - N/A   Clear
7:54 PM 66.9 °F 50.0 °F 54% 30.22 in 10.0 mi ESE 8.1 mph - N/A   Clear
9:54 PM 60.1 °F 48.9 °F 67% 30.23 in 10.0 mi East 9.2 mph - N/A   Clear
10:54 PM 61.0 °F 51.1 °F 70% 30.25 in 10.0 mi East 8.1 mph - N/A   Clear
11:54 PM 61.0 °F 52.0 °F 72% 30.25 in 10.0 mi ESE 8.1 mph - N/A   Clear